[[{"header":{"parameterUnit":"m.s-1","parameterCategory":1,"la1":30.2991,"la2":30.254,"lo1":-89.0895,"lo2":-89.0444,"dy":0.0017,"dx":0.0017,"nx":28,"ny":28,"refTime":"2025-11-26T03:00:00:Z","depth":0,"parameterNumber":2,"parameterNumberName":"U-component_of_WINDS"},"data":[0,0,0,0,0,0,0,0,0,0,0,0,0,0,0,0,0,0,0,0,0,0,0,0,0,0,0,0,0,0,0,0,0,0,0,0,0,0,0,0,0,0,0,0,0,0,0,0,0,0,0,0,0,0,0,0,0,0,-2.695,-2.695,0,-2.697,-2.697,-2.697,-2.6901,-2.6898,-2.6896,-2.6894,-2.6915,-2.6917,-2.692,0,0,0,0,0,0,0,0,0,0,0,0,0,-2.685,-2.6852,-2.695,-2.695,-2.695,-2.697,-2.697,-2.697,-2.6901,-2.6898,-2.6896,-2.6893,-2.6914,-2.6917,-2.692,0,0,0,0,0,0,0,0,0,0,0,0,0,-2.6884,-2.6853,-2.695,-2.6918,-2.6915,-2.697,-2.697,-2.697,-2.6901,-2.6898,-2.6895,-2.6892,-2.6913,-2.6917,-2.6921,-2.7007,0,0,-2.6932,-2.6934,0,0,0,0,0,0,0,0,-2.6882,-2.6888,-2.6922,-2.692,-2.6917,-2.6929,-2.6942,-2.6983,-2.6902,-2.6907,-2.6894,-2.6891,-2.6922,-2.6925,-2.6936,-2.7008,-2.7009,-2.6932,-2.6935,-2.6936,-2.6937,0,0,0,0,0,0,0,-2.688,-2.6886,-2.6958,-2.6923,-2.692,-2.6902,-2.6904,-2.695,-2.6932,-2.6906,-2.6901,-2.6904,-2.692,-2.6932,-2.6936,-2.7009,-2.6932,-2.6936,-2.6938,-2.6939,-2.7152,-2.7155,0,0,0,0,0,0,-2.6882,-2.6885,-2.6957,-2.6958,-2.6892,-2.6907,-2.6908,-2.6929,-2.6931,-2.6929,-2.6907,-2.6901,-2.6928,-2.6932,-2.6936,-2.7038,-2.6936,-2.694,-2.6942,-2.7149,-2.7153,-2.7156,0,0,0,0,0,0,-2.688,-2.6889,-2.6956,-2.692,-2.6927,-2.6912,-2.6935,-2.6931,-2.6943,-2.6932,-2.6928,-2.6923,-2.6925,-2.6931,-2.699,-2.7037,-2.6941,-2.6945,-2.7145,-2.715,-2.7155,-2.7241,0,0,0,0,0,0,-2.6877,-2.6889,-2.6921,-2.6921,-2.693,-2.701,-2.6938,-2.6933,-2.6949,-2.6942,-2.6946,-2.6943,-2.6923,-2.6984,-2.6993,-2.7041,-2.6948,-2.714,-2.7147,-2.7153,-2.7234,-2.7248,-2.7261,0,0,0,0,0,-2.6874,-2.6945,-2.6924,-2.6933,-2.697,-2.7013,-2.7017,-2.6993,-2.6954,-2.6986,-2.6979,-2.6943,-2.703,-2.6991,-2.7001,-2.705,-2.7137,-2.7145,-2.7152,-2.7228,-2.7246,-2.7261,0,0,0,0,0,0,-2.6951,-2.6944,-2.6921,-2.6994,-2.7004,-2.7001,-2.7042,-2.7012,-2.7034,-2.7026,-2.6994,-2.6996,-2.706,-2.706,-2.7017,-2.7133,-2.7077,-2.7087,-2.7131,-2.7148,-2.7161,-2.716,-2.6951,0,0,0,0,0,-2.6976,-2.7012,-2.7004,-2.7069,-2.7075,-2.7058,-2.7075,-2.7055,-2.7065,-2.7069,-2.7066,-2.7077,-2.7106,-2.7127,-2.7153,-2.7233,-2.7233,-2.7271,-2.7285,-2.7296,-2.7305,-2.7347,-2.7365,-2.7182,-2.7181,-2.7181,0,0,-2.703,-2.703,-2.7054,-2.7084,-2.709,-2.7127,-2.7062,-2.7104,-2.7131,-2.7075,-2.7131,-2.7129,-2.7139,-2.7208,-2.7239,-2.721,-2.7356,-2.7306,-2.7315,-2.7318,-2.7357,-2.7374,-2.739,-2.7187,-2.7186,-2.7185,0,0,-2.7146,-2.7149,-2.7204,-2.7211,-2.7221,-2.7209,-2.7222,-2.7223,-2.7219,-2.7274,-2.7234,-2.7265,-2.7317,-2.7325,-2.7337,-2.7455,-2.7423,-2.7464,-2.7535,-2.7577,-2.7591,-2.7604,-2.7647,-2.7663,-2.7473,-2.7473,-2.7474,0,-2.7211,-2.7265,-2.7236,-2.7281,-2.7295,-2.7246,-2.7302,-2.731,-2.7328,-2.7339,-2.7306,-2.737,-2.7373,-2.7444,-2.7473,-2.7484,-2.7498,-2.7464,-2.7591,-2.7604,-2.7615,-2.7656,-2.7672,-2.7479,-2.7478,-2.7477,-2.7477,0,-2.7344,-2.7382,-2.7425,-2.7444,-2.7463,-2.7513,-2.7492,-2.7514,-2.7492,-2.7483,-2.754,-2.7542,-2.7568,-2.7583,-2.7562,-2.7651,-2.7633,-2.7597,-2.754,-2.7638,-2.7676,-2.7691,-2.7486,-2.7484,-2.7482,-2.7481,0,0,-2.7511,-2.7513,-2.7529,-2.7537,-2.7543,-2.7572,-2.7619,-2.7645,-2.7665,-2.7679,-2.7718,-2.7762,-2.7728,-2.7741,-2.772,-2.7757,-2.7851,-2.7716,-2.7715,-2.7742,-2.795,-2.7978,-2.7997,-2.7829,-2.7832,-2.7834,-2.7949,0,-2.7626,-2.7707,-2.7682,-2.7764,-2.7799,-2.7752,-2.7793,-2.7802,-2.7794,-2.7823,-2.7814,-2.7846,-2.7799,-2.7806,-2.784,-2.7833,-2.7893,-2.7824,-2.7866,-2.7867,-2.7866,-2.8016,-2.8046,-2.8155,-2.7964,-2.7966,-2.7968,0,-2.7771,-2.779,-2.7876,-2.7876,-2.789,-2.7928,-2.7949,-2.7976,-2.7985,-2.7976,-2.799,-2.7962,-2.8008,-2.795,-2.8013,-2.7967,-2.7982,-2.7981,-2.7984,-2.7989,-2.7925,-2.8025,-2.8189,-2.8206,-2.7991,-2.7989,-2.7987,0,-2.7885,-2.7932,-2.799,-2.7998,-2.7999,-2.8027,-2.8029,-2.8034,-2.8051,-2.8069,-2.808,-2.8103,-2.8116,-2.8135,-2.8113,-2.8073,-2.818,-2.812,-2.8175,-2.8176,-2.8201,-2.82,-2.8371,-2.8209,-2.8209,-2.8208,-2.8208,0,-2.8017,-2.8071,-2.8041,-2.8077,-2.8136,-2.8106,-2.8166,-2.8162,-2.8167,-2.8201,-2.8161,-2.8194,-2.8163,-2.8192,-2.8175,-2.8231,-2.8237,-2.8231,-2.8227,-2.8236,-2.8237,-2.8247,-2.8239,-2.8213,-2.8212,-2.8211,-2.821,0,-2.8155,-2.8137,-2.8197,-2.8193,-2.8193,-2.8237,-2.8234,-2.8267,-2.8256,-2.8299,-2.8307,-2.829,-2.8323,-2.8303,-2.8336,-2.8324,-2.8397,-2.8381,-2.8394,-2.8391,-2.8447,-2.8442,-2.8631,-2.8655,-2.8477,-2.8478,-2.848,0,-2.8241,-2.8282,-2.8282,-2.8302,-2.8307,-2.8339,-2.8356,-2.8328,-2.8347,-2.8359,-2.8391,-2.842,-2.8442,-2.8496,-2.8487,-2.8511,-2.8497,-2.8561,-2.85,-2.8508,-2.8499,-2.8497,-2.8501,-2.8574,-2.8576,-2.8578,-2.8579,0,-2.8396,-2.8384,-2.8411,-2.8434,-2.8455,-2.8472,-2.8485,-2.8504,-2.8475,-2.8499,-2.8532,-2.8549,-2.8582,-2.8612,-2.8633,-2.8634,-2.8603,-2.8598,-2.8612,-2.8623,-2.8629,-2.8627,-2.8429,-2.8594,-2.8593,-2.8591,-2.8591,-2.859,-2.8511,-2.8545,-2.8551,-2.8581,-2.8588,-2.8602,-2.8632,-2.8625,-2.8652,-2.8677,-2.8658,-2.8698,-2.8704,-2.8729,-2.8734,-2.8764,-2.8738,-2.8758,-2.8764,-2.877,-2.8778,-2.8623,-2.8768,-2.8767,-2.8767,-2.8766,-2.8766,0,-2.8664,-2.8666,-2.8694,-2.8714,-2.8738,-2.8704,-2.8717,-2.874,-2.8775,-2.8783,-2.8805,-2.8843,-2.8871,-2.8864,-2.8889,-2.8915,-2.8901,-2.8922,-2.8921,-2.8922,-2.8799,-2.8785,-2.8933,-2.8933,-2.8933,-2.8933,-2.8933,-2.8933,-2.8747,-2.8803,-2.8793,-2.8852,-2.8852,-2.8891,-2.8901,-2.8913,-2.892,-2.8964,-2.8987,-2.8981,-2.8984,-2.9008,-2.9033,-2.903,-2.9041,-2.9069,-2.9061,-2.8947,-2.893,-2.8915,-2.8901,-2.9071,-2.9071,-2.918,-2.9182,-2.9182]},{"header":{"parameterUnit":"m.s-1","parameterCategory":1,"la1":30.2991,"la2":30.254,"lo1":-89.0895,"lo2":-89.0444,"dy":0.0017,"dx":0.0017,"nx":28,"ny":28,"refTime":"2025-11-26T03:00:00:Z","depth":0,"parameterNumber":3,"parameterNumberName":"V-component_of_WINDS"},"data":[0,0,0,0,0,0,0,0,0,0,0,0,0,0,0,0,0,0,0,0,0,0,0,0,0,0,0,0,0,0,0,0,0,0,0,0,0,0,0,0,0,0,0,0,0,0,0,0,0,0,0,0,0,0,0,0,0,0,-6.6981,-6.6981,0,-6.7066,-6.7067,-6.7068,-6.6994,-6.6991,-6.6988,-6.6985,-6.7067,-6.7072,-6.7077,0,0,0,0,0,0,0,0,0,0,0,0,0,-6.6748,-6.6752,-6.698,-6.6982,-6.6983,-6.7066,-6.7067,-6.7068,-6.6995,-6.6991,-6.6987,-6.6984,-6.7066,-6.7072,-6.7078,0,0,0,0,0,0,0,0,0,0,0,0,0,-6.6843,-6.6754,-6.698,-6.6956,-6.6955,-6.7066,-6.7067,-6.7069,-6.6996,-6.6991,-6.6987,-6.6982,-6.7064,-6.7071,-6.7079,-6.7216,0,0,-6.7101,-6.7105,0,0,0,0,0,0,0,0,-6.6837,-6.6851,-6.6959,-6.6958,-6.6957,-6.7015,-6.7015,-6.7118,-6.6997,-6.698,-6.6985,-6.698,-6.7053,-6.7061,-6.7087,-6.722,-6.7223,-6.7102,-6.7107,-6.711,-6.7112,0,0,0,0,0,0,0,-6.6831,-6.6847,-6.7014,-6.696,-6.6959,-6.6939,-6.6948,-6.7034,-6.7041,-6.6981,-6.6976,-6.6987,-6.7052,-6.708,-6.7089,-6.7224,-6.7102,-6.7109,-6.7113,-6.7116,-6.7474,-6.7479,0,0,0,0,0,0,-6.6828,-6.6842,-6.7011,-6.7017,-6.6885,-6.6947,-6.6957,-6.7001,-6.704,-6.7041,-6.6991,-6.6984,-6.707,-6.708,-6.7091,-6.7255,-6.711,-6.7117,-6.7121,-6.7469,-6.7475,-6.748,0,0,0,0,0,0,-6.6823,-6.6843,-6.7008,-6.6928,-6.6948,-6.6956,-6.7006,-6.7005,-6.7033,-6.7048,-6.7048,-6.7019,-6.7066,-6.7081,-6.7186,-6.7257,-6.712,-6.7127,-6.7463,-6.7471,-6.7478,-6.7584,0,0,0,0,0,0,-6.6816,-6.6842,-6.6896,-6.693,-6.6952,-6.7103,-6.7011,-6.701,-6.7047,-6.7038,-6.7074,-6.7076,-6.7064,-6.7175,-6.7193,-6.7265,-6.7133,-6.7457,-6.7467,-6.7475,-6.7574,-6.7594,-6.7611,0,0,0,0,0,-6.6808,-6.6921,-6.6899,-6.692,-6.702,-6.7108,-6.712,-6.7106,-6.7053,-6.7106,-6.7115,-6.7074,-6.7246,-6.7187,-6.7206,-6.7281,-6.7452,-6.7464,-6.7475,-6.7566,-6.759,-6.7611,0,0,0,0,0,0,-6.6892,-6.6925,-6.6901,-6.7028,-6.7066,-6.7095,-6.7162,-6.7132,-6.7184,-6.7173,-6.7152,-6.7161,-6.7272,-6.7287,-6.722,-6.7416,-6.734,-6.7356,-6.7403,-6.7426,-6.7444,-6.7439,-6.7139,0,0,0,0,0,-6.6926,-6.6997,-6.702,-6.713,-6.7151,-6.7153,-6.7191,-6.7177,-6.7214,-6.7229,-6.7246,-6.7283,-6.7345,-6.7386,-6.7444,-6.7576,-6.7582,-6.7637,-6.7655,-6.767,-6.7684,-6.7755,-6.778,-6.7517,-6.7517,-6.7517,0,0,-6.6996,-6.7022,-6.7068,-6.7148,-6.7175,-6.7248,-6.7167,-6.7246,-6.7299,-6.7241,-6.7342,-6.7356,-6.7395,-6.7514,-6.7567,-6.753,-6.7758,-6.7685,-6.7697,-6.7703,-6.7769,-6.7794,-6.7816,-6.7525,-6.7524,-6.7522,0,0,-6.716,-6.7187,-6.7282,-6.7312,-6.7356,-6.7357,-6.738,-6.7414,-6.7421,-6.7523,-6.7481,-6.7542,-6.765,-6.7679,-6.7709,-6.7885,-6.7849,-6.7904,-6.8001,-6.8071,-6.8091,-6.8109,-6.8173,-6.8195,-6.7918,-6.7918,-6.7918,0,-6.724,-6.7349,-6.7334,-6.7418,-6.7454,-6.7406,-6.7502,-6.753,-6.759,-6.7615,-6.7573,-6.7707,-6.773,-6.7856,-6.7899,-6.7924,-6.7949,-6.79,-6.809,-6.8108,-6.8125,-6.8185,-6.8208,-6.7924,-6.7924,-6.7923,-6.7922,0,-6.7446,-6.7522,-6.7593,-6.7655,-6.7699,-6.7788,-6.7785,-6.7831,-6.7813,-6.7818,-6.7922,-6.7948,-6.801,-6.8039,-6.8021,-6.8163,-6.8138,-6.8093,-6.8017,-6.8157,-6.8213,-6.8235,-6.7934,-6.7931,-6.7929,-6.7928,0,0,-6.7666,-6.7719,-6.7745,-6.7773,-6.7818,-6.7875,-6.7961,-6.8025,-6.8065,-6.8107,-6.8178,-6.8271,-6.823,-6.8263,-6.8248,-6.8309,-6.8448,-6.8257,-6.8257,-6.8292,-6.8605,-6.8639,-6.8666,-6.8424,-6.8428,-6.8432,-6.8602,0,-6.7832,-6.7985,-6.7974,-6.8117,-6.8186,-6.8143,-6.8217,-6.8252,-6.8259,-6.8318,-6.8324,-6.8391,-6.8331,-6.8351,-6.841,-6.8419,-6.851,-6.8406,-6.8489,-6.8492,-6.8482,-6.8695,-6.8732,-6.8891,-6.8624,-6.8627,-6.863,0,-6.8047,-6.81,-6.8251,-6.8286,-6.8315,-6.8383,-6.844,-6.8497,-6.8535,-6.8536,-6.8574,-6.8549,-6.8634,-6.8556,-6.8672,-6.8602,-6.8635,-6.8644,-6.865,-6.8658,-6.857,-6.8709,-6.8941,-6.8966,-6.8664,-6.8661,-6.8659,0,-6.8193,-6.8301,-6.8405,-6.843,-6.8474,-6.8523,-6.8543,-6.8577,-6.8616,-6.8665,-6.869,-6.8747,-6.8779,-6.8824,-6.8815,-6.8758,-6.8934,-6.8854,-6.8936,-6.8937,-6.8976,-6.8973,-6.9217,-6.8996,-6.8996,-6.8995,-6.8995,0,-6.838,-6.8474,-6.8472,-6.8536,-6.864,-6.8626,-6.8728,-6.8742,-6.8773,-6.8838,-6.8802,-6.8863,-6.8847,-6.8908,-6.8901,-6.8998,-6.9013,-6.9015,-6.9012,-6.9019,-6.9019,-6.904,-6.9029,-6.9002,-6.9,-6.8999,-6.8998,0,-6.8561,-6.8563,-6.8674,-6.8707,-6.8717,-6.8793,-6.882,-6.888,-6.8884,-6.8967,-6.8985,-6.8991,-6.906,-6.9056,-6.9133,-6.9128,-6.925,-6.9233,-6.9238,-6.9234,-6.9317,-6.9309,-6.9583,-6.9619,-6.9374,-6.9377,-6.9379,0,-6.8681,-6.8752,-6.8794,-6.8836,-6.886,-6.8928,-6.8968,-6.8956,-6.8999,-6.9049,-6.9102,-6.9169,-6.9222,-6.9334,-6.9344,-6.9403,-6.9388,-6.948,-6.9397,-6.9401,-6.939,-6.9386,-6.9393,-6.9497,-6.9499,-6.9502,-6.9503,0,-6.8893,-6.8891,-6.8952,-6.9014,-6.9063,-6.911,-6.9153,-6.9189,-6.9181,-6.9231,-6.9303,-6.9344,-6.9424,-6.9491,-6.9547,-6.9565,-6.9533,-6.953,-6.9552,-6.956,-6.956,-6.9561,-6.9283,-6.9524,-6.9522,-6.952,-6.9519,-6.9518,-6.9048,-6.911,-6.9149,-6.9218,-6.9249,-6.9291,-6.9349,-6.9362,-6.9422,-6.9488,-6.9476,-6.9557,-6.9592,-6.9665,-6.9689,-6.9751,-6.9717,-6.9749,-6.9757,-6.9766,-6.9776,-6.955,-6.9761,-6.976,-6.9759,-6.9759,-6.9758,0,-6.9259,-6.9283,-6.9346,-6.9409,-6.9463,-6.943,-6.9476,-6.9523,-6.9595,-6.9632,-6.9685,-6.9767,-6.9831,-6.9847,-6.9908,-6.9954,-6.9941,-6.9971,-6.9968,-6.9972,-6.9801,-6.9777,-6.9981,-6.9981,-6.9981,-6.9981,-6.998,-6.998,-6.9376,-6.9479,-6.9482,-6.9601,-6.9622,-6.9703,-6.9732,-6.977,-6.9799,-6.9894,-6.9948,-6.9958,-6.9986,-7.005,-7.0107,-7.0109,-7.0134,-7.0169,-7.0166,-7.0007,-6.9984,-6.9963,-6.994,-7.0175,-7.0175,-7.0332,-7.0334,-7.0335]}]]